This demonstration page uses our WeatherBlox Daily Observations layout. Learn more.

Left ArrowRight Arrow

Hourly Observations for April 20, 2020

Temp ( °F °C ) Dew Point ( °F °C ) Humidity (%) Winds ( mph kmh ) Pressure ( in mb ) Visibility ( mi km ) Precip ( " mm )
12:15 am 00:15 Cloudy 48 8.9 43 6 82 82 NNW 5 7 29.94 1014 10 16 N/A
12:35 am 00:35 Cloudy with Heavy Rain 48 9 44 6.6 85 85 NNW 3 6 29.94 1014 7 11 0.02 0.51
12:55 am 00:55 Cloudy with Light Rain 48 8.7 44 6.7 87 87 ENE 5 7 29.91 1013 10 16 0.05 1.27
1:15 am 01:15 Cloudy 47 8.5 44 6.9 90 90 ESE 8 13 29.90 1012 10 16 N/A
1:35 am 01:35 Mostly Cloudy 46 8 44 6.5 90 90 E 3 6 29.90 1013 10 16 N/A
1:55 am 01:55 Partly Cloudy 46 7.5 43 6 90 90 ENE 3 6 29.92 1013 10 16 N/A
2:35 am 02:35 Cloudy 47 8.6 42 5.5 81 81 N N/A 29.90 1012 10 16 N/A
2:55 am 02:55 Partly Cloudy 47 8.3 41 5 80 80 N N/A 29.89 1012 10 16 N/A
3:15 am 03:15 Clear with Nearby Thunderstorms 45 7 40 4.4 84 84 N N/A 29.90 1013 10 16 N/A
3:35 am 03:35 Clear 43 6.1 40 4.4 89 89 N N/A 29.90 1012 10 16 N/A
3:55 am 03:55 Clear 41 5.2 40 4.2 93 93 N N/A 29.91 1013 10 16 N/A
4:15 am 04:15 Clear 39 4.1 37 3 93 93 N N/A 29.92 1013 10 16 N/A
4:35 am 04:35 Clear 39 3.9 37 2.9 93 93 NW 6 9 29.93 1013 10 16 N/A
4:55 am 04:55 Clear 39 4 38 3.1 94 94 NNW 6 9 29.93 1013 10 16 N/A
5:15 am 05:15 Clear 38 3.5 36 2.3 92 92 NW 6 9 29.93 1014 10 16 N/A
5:35 am 05:35 Clear 38 3.3 36 2.3 93 93 NW 6 9 29.93 1014 10 16 N/A
5:55 am 05:55 Clear 37 2.8 36 2 95 95 NW 7 11 29.95 1014 10 16 N/A
6:15 am 06:15 Clear 38 3.1 37 2.5 96 96 WNW 7 11 29.96 1014 10 16 N/A
6:35 am 06:35 Clear 37 2.9 36 2.2 95 95 NW 8 13 29.96 1014 10 16 N/A
6:55 am 06:55 Sunny 38 3.5 37 2.9 96 96 WNW 8 13 29.95 1014 10 16 N/A
7:15 am 07:15 Sunny 38 3.1 36 2.4 95 95 WNW 5 7 29.97 1015 10 16 N/A
7:35 am 07:35 Sunny 38 3.5 37 2.8 95 95 W 6 9 29.96 1015 10 16 N/A
7:55 am 07:55 Sunny 41 4.8 39 3.7 93 93 WNW 6 9 29.95 1014 10 16 N/A
8:15 am 08:15 Sunny 43 5.9 40 4.5 91 91 NW 8 13 29.95 1014 10 16 N/A
8:35 am 08:35 Sunny 46 7.9 43 6 88 88 WNW 8 13 29.93 1014 10 16 N/A
8:55 am 08:55 Sunny 48 8.9 44 6.4 85 85 NW 9 15 29.92 1013 10 16 N/A
9:15 am 09:15 Sunny 50 10.2 45 7.1 81 81 NW 8 13 29.91 1013 10 16 N/A
9:35 am 09:35 Sunny 52 11 44 6.5 74 74 NW 10 17 29.89 1012 10 16 N/A
9:55 am 09:55 Sunny 53 11.8 43 6 68 68 NW 8 13 29.89 1012 10 16 N/A
10:15 am 10:15 Sunny 55 12.6 43 5.9 64 64 NW 12 19 29.89 1012 10 16 N/A
10:35 am 10:35 Sunny 56 13.1 43 6.2 63 63 NW 12 19 29.89 1012 10 16 N/A
10:55 am 10:55 Sunny 56 13.6 42 5.6 59 59 NW 10 17 29.88 1012 10 16 N/A
11:15 am 11:15 Sunny 59 14.9 42 5.7 54 54 WNW 8 13 29.87 1012 10 16 N/A
11:35 am 11:35 Sunny 60 15.5 40 4.3 47 47 NW 13 20 29.87 1011 10 16 N/A
11:55 am 11:55 Sunny 61 16.3 40 4.5 46 46 NW 13 20 29.85 1011 10 16 N/A
12:15 pm 12:15 Sunny 62 16.8 37 2.8 39 39 WNW 12 19 29.84 1011 10 16 N/A
12:35 pm 12:35 Sunny 63 17.3 37 2.5 37 37 NW 16 26 29.84 1010 10 16 N/A
12:55 pm 12:55 Sunny 64 18 36 2.2 35 35 NW 21 33 29.83 1010 10 16 N/A
1:15 pm 13:15 Sunny 65 18.2 37 2.5 35 35 NW 20 31 29.82 1010 10 16 N/A
1:35 pm 13:35 Partly Cloudy 65 18.6 36 2.2 34 34 NW 20 31 29.81 1009 10 16 N/A
1:55 pm 13:55 Partly Cloudy 66 19 34 1.2 31 31 NNW 20 31 29.81 1009 10 16 N/A
2:15 pm 14:15 Partly Cloudy 68 20.1 31 -0.6 25 25 NW 22 35 29.79 1009 10 16 N/A
2:35 pm 14:35 Partly Cloudy 68 19.8 30 -1.1 25 25 NW 18 30 29.79 1009 10 16 N/A
2:55 pm 14:55 Mostly Cloudy 70 21.3 31 -0.7 23 23 NW 18 30 29.78 1008 10 16 N/A
3:15 pm 15:15 Cloudy 68 19.9 30 -1.1 24 24 NW 21 33 29.79 1009 10 16 N/A
3:55 pm 15:55 Cloudy 68 20.2 29 -1.6 23 23 NNW 17 28 29.78 1008 10 16 N/A
4:15 pm 16:15 Cloudy 68 20.1 30 -1.3 24 24 WNW 16 26 29.78 1008 10 16 N/A
4:35 pm 16:35 Cloudy 69 20.6 29 -1.5 23 23 NW 21 33 29.77 1008 10 16 N/A
4:55 pm 16:55 Cloudy 69 20.4 30 -1.2 23 23 NW 16 26 29.77 1008 10 16 N/A
5:15 pm 17:15 Cloudy 69 20.3 30 -0.9 24 24 NW 15 24 29.78 1008 10 16 N/A
5:35 pm 17:35 Mostly Cloudy 69 20.6 30 -1 24 24 NNW 17 28 29.77 1008 10 16 N/A
5:55 pm 17:55 Mostly Cloudy 69 20.6 31 -0.6 24 24 NNW 15 24 29.77 1008 10 16 N/A
6:15 pm 18:15 Partly Cloudy 68 20 30 -1.1 24 24 NNW 17 28 29.78 1008 10 16 N/A
6:35 pm 18:35 Partly Cloudy 68 20 30 -1 24 24 NNW 15 24 29.78 1008 10 16 N/A
6:55 pm 18:55 Partly Cloudy 67 19.7 30 -1 25 25 NNW 14 22 29.79 1009 10 16 N/A
7:15 pm 19:15 Sunny 66 19.1 31 -0.5 27 27 NNW 15 24 29.80 1009 10 16 N/A
7:35 pm 19:35 Sunny 65 18.4 31 -0.6 28 28 N 14 22 29.82 1010 10 16 N/A
7:55 pm 19:55 Partly Cloudy 64 17.6 31 -0.5 29 29 NNW 9 15 29.83 1010 10 16 N/A
8:15 pm 20:15 Partly Cloudy 62 16.4 31 -0.5 32 32 NNW 7 11 29.85 1011 10 16 N/A
8:35 pm 20:35 Clear 58 14.6 31 -0.5 36 36 NNW 7 11 29.86 1011 10 16 N/A
8:55 pm 20:55 Clear 57 13.8 31 -0.7 37 37 NNW 6 9 29.88 1012 10 16 N/A
9:15 pm 21:15 Clear 56 13.1 31 -0.7 39 39 NNW 6 9 29.90 1012 10 16 N/A
9:35 pm 21:35 Clear 55 12.9 30 -1 39 39 NNW 6 9 29.91 1013 10 16 N/A
9:55 pm 21:55 Clear 52 11.3 31 -0.8 43 43 NNW 6 9 29.93 1014 10 16 N/A
10:15 pm 22:15 Clear 49 9.2 31 -0.6 51 51 NNW 6 9 29.96 1015 10 16 N/A
10:35 pm 22:35 Clear 45 7.2 30 -1.3 55 55 N 5 7 29.99 1016 10 16 N/A
10:55 pm 22:55 Clear 45 7.2 31 -0.7 58 58 NNW 3 6 29.99 1016 10 16 N/A
11:15 pm 23:15 Clear 45 7.1 31 -0.7 58 58 N N/A 30.00 1016 10 16 N/A
11:35 pm 23:35 Clear 44 6.6 31 -0.5 61 61 N N/A 30.00 1016 10 16 N/A
11:55 pm 23:55 Clear 43 6.1 31 -0.6 63 63 WNW 3 6 30.01 1016 10 16 N/A

Powered by AerisWeather